Regional Weather Roundup
Issued by NWS

Home | Current Version | Previous Version | Graphics & Text | Print | Product List | Glossary Off
Versions: 1 2 3 4 5 6 7 8 9 10 11 12 13 14 15 16 17 18 19 20 21 22 23 24 25 26 27 28 29 30 31 32 33 34 35 36 37 38 39 40 41 42 43 44 45 46 47 48 49 50

000
ASUS43 KMPX 020510
RWRMN
WEATHER ROUNDUP FOR MINNESOTA
NATIONAL WEATHER SERVICE TWIN CITIES/CHANHASSEN MN
1200 AM CDT SAT AUG 02 2014


NOTE: "FAIR" INDICATES FEW OR NO CLOUDS BELOW 12,000 FEET WITH NO
SIGNIFICANT WEATHER AND/OR OBSTRUCTIONS TO VISIBILITY. N/A MEANS
CURRENT SKY AND/OR WEATHER CONDITIONS ARE NOT AVAILABLE.

MNZ060>063-068>070-020600-
   Twin Cities Metro

CITY           SKY/WX    TMP DP  RH WIND       PRES   REMARKS
TWIN CITIES    CLEAR     71  61  70 CALM      30.08R
ST PAUL        CLEAR     66  64  93 CALM      30.07S FOG
CRYSTAL        CLEAR     68  61  78 CALM      30.06S
BLAINE         CLEAR     66  63  88 CALM      30.07S
LAKEVILLE      CLEAR     63  61  94 CALM      30.08S
EDEN PRAIRIE   CLEAR     68  62  81 CALM      30.07R
SOUTH ST PAUL  CLEAR     66  64  90 CALM      30.07S FOG
LAKE ELMO        N/A     61  61 100 CALM      30.08S FOG
$$
MNZ001>005-007-008-013>017-022>024-027-028-020600-
   Northwest Minnesota

CITY           SKY/WX    TMP DP  RH WIND       PRES   REMARKS
BEMIDJI        CLEAR     57  55  92 CALM      30.09F
HALLOCK        CLEAR     64  61  88 S5        30.06S
ROSEAU         CLEAR     61  55  82 CALM      30.07R
WARROAD        CLEAR     64  57  77 SW5       30.08R
THIEF RVR FALL CLEAR     63  61  94 CALM      30.09R
CROOKSTON      CLEAR     63  61  94 CALM      30.08S
FOSSTON        CLEAR     55  48  76 CALM      30.10S HAZE
DETROIT LAKES  CLEAR     64  63  94 CALM      30.11S
MOORHEAD       CLEAR     64  63  94 CALM      30.08S
PARK RAPIDS    CLEAR     59  56  89 CALM      30.10R
$$
MNZ006-009>011-018-025>026-020600-
   North Central Minnesota

CITY           SKY/WX    TMP DP  RH WIND       PRES   REMARKS
BAUDETTE       CLEAR     54  51  90 CALM      30.08S
FLAG ISLAND    CLEAR     70  57  64 SW6       30.06R
INTL FALLS     CLEAR     49  47  93 CALM      30.08R
WASKISH        CLEAR     54  52  94 CALM      30.09R
BIG FORK       CLEAR     55  54  94 CALM        N/A
LONGVILLE      CLEAR     57  57 100 CALM      30.09S FOG
GRAND RAPIDS   CLEAR     59  55  88 CALM      30.09S
CRANE LAKE     CLEAR     50  48  93 CALM      30.10S
ORR            CLEAR     52  48  87 CALM      30.07F
COOK           CLEAR     52  52 100 CALM      30.10S
$$
MNZ012-019>021-037-020600-
   Northeast Minnesota

CITY           SKY/WX    TMP DP  RH WIND       PRES   REMARKS
DULUTH         CLEAR     58  50  75 E5        30.10S
ELY            CLEAR     54  50  87 CALM      30.11S
HIBBING        FOG       54  52  93 NW3       30.10S VSB 3/4
EVELETH        CLEAR     54  54 100 NE3       30.12S FOG
DULUTH HARBOR  CLEAR     59  54  82 NE12      30.11R
TWO HARBORS    CLEAR     55  50  82 N3        30.09S
SILVER BAY     CLEAR     50  50 100 CALM      30.10S
GRAND MARAIS     N/A     53  50  89 N3        30.11S
G MARAIS ARPRT CLEAR     48  45  87 CALM      30.15R
$$
MNZ029>031-032-039>041-046>048-054>057-064-020600-
   West Central Minnesota

CITY           SKY/WX    TMP DP  RH WIND       PRES   REMARKS
FERGUS FALLS   CLEAR     64  55  72 E3        30.08S
WHEATON        PTCLDY    63  61  94 CALM      30.10R
MORRIS         PTCLDY    63  61  94 CALM      30.08S
ALEXANDRIA     CLEAR     66  60  81 CALM      30.11R
ELBOW LAKE     FAIR      67  61  81 CALM      30.08S
WADENA         CLEAR     57  55  94 CALM      30.09S
GLENWOOD       CLEAR     66  59  77 CALM      30.11R
APPLETON       PTCLDY    64  61  88 CALM      30.08S
BENSON         PTCLDY    63  61  94 CALM      30.09S
ORTONVILLE     PTCLDY    66  63  88 CALM      30.09R
MADISON        PTCLDY    64  63  94 CALM      30.10R
WILLMAR        FAIR      66  59  77 CALM      30.10S
$$
MNZ033>034-036-042>043-049>051-058-059-020600-
   Central Minnesota

CITY           SKY/WX    TMP DP  RH WIND       PRES   REMARKS
ST CLOUD       CLEAR     64  59  83 CALM      30.08R
SAUK CENTRE    FAIR      60  59  96 CALM      30.10R
PAYNESVILLE    CLEAR     58  58 100 CALM      30.10R FOG
AITKIN         CLEAR     59  54  82 CALM      30.07S HAZE
PINE RIVER     CLEAR     59  57  94 CALM      30.12S
BRAINERD       CLEAR     62  60  93 CALM      30.09R
STAPLES        CLEAR     61  57  88 CALM      30.09S
LONG PRAIRIE   FAIR      59  59 100 CALM      30.10R
LITTLE FALLS   CLEAR     59  55  88 CALM      30.09R FOG
LITCHFIELD     CLEAR     66  64  94 CALM      30.09S
BUFFALO        CLEAR     67  62  83 CALM      30.09R
MAPLE LAKE     CLEAR     65  64  96 CALM      30.09R FOG
$$
MNZ037-044-045-052-053-020600-
   East Central Minnesota

CITY           SKY/WX    TMP DP  RH WIND       PRES   REMARKS
PRINCETON      CLEAR     64  63  94 CALM      30.08S
MORA           FOG       59  59 100 CALM      30.10R VSB 3/4
CAMBRIDGE      CLEAR     66  59  77 CALM      30.06S
RUSH CITY      PTCLDY    63  61  94 CALM      30.08S
MOOSE LAKE     PTCLDY    55  52  88 CALM      30.08R
HINCKLEY       FAIR      61  61 100 CALM      30.09R FOG
CLOQUET        CLEAR     55  50  82 CALM      30.10S
MCGREGOR       CLEAR     61  57  88 CALM      30.09S
$$
MNZ071>073-080-081-089-090-097-098-020600-
   Southwest Minnesota

CITY           SKY/WX    TMP DP  RH WIND       PRES   REMARKS
MONTEVIDEO     CLEAR     64  61  88 SW3       30.10R
GRANITE FALLS  CLEAR     64  61  89 CALM      30.11R
CANBY          PTCLDY    63  59  89 CALM      30.12R
MARSHALL       CLEAR     66  57  72 SW6       30.10R
REDWOOD FALLS  CLEAR     69  62  78 SW3       30.09R
OLIVIA         CLEAR     64  61  88 CALM      30.09R
PIPESTONE      CLEAR     68  59  73 CALM      30.14R
WINDOM         CLEAR     63  59  88 CALM      30.12R
WORTHINGTON    CLEAR     63  57  82 SW3       30.15R
JACKSON        CLEAR     61  57  88 S3        30.13R
TRACY          CLEAR     67  60  78 SW7       30.12R
SLAYTON        CLEAR     64  58  82 CALM      30.14R
$$
MNZ065>067-074>077-082>085-091>093-020600-
   South Central Minnesota

CITY           SKY/WX    TMP DP  RH WIND       PRES   REMARKS
MANKATO        CLEAR     70  57  64 W6        30.09S
NEW ULM        CLEAR     66  63  88 CALM      30.09S
ST JAMES       CLEAR     64  61  88 CALM      30.11R
FAIRMONT       CLEAR     63  55  77 SW3       30.11S
GLENCOE        CLEAR     66  60  81 CALM      30.09R
FARIBAULT      CLEAR     64  57  77 CALM      30.09S
OWATONNA       CLEAR     63  57  82 CALM      30.10S
WASECA         CLEAR     61  55  82 CALM      30.11S
ALBERT LEA     CLEAR     63  61  94 CALM      30.11S
$$
MNZ078>079-086>088-094>096-020600-
   Southeast Minnesota

CITY           SKY/WX    TMP DP  RH WIND       PRES   REMARKS
ROCHESTER      CLEAR     63  60  90 S6        30.12S
RED WING       CLEAR     64  63  94 CALM      30.07S
STANTON        CLEAR     66  62  86 S5        30.07S
DODGE CENTER   CLEAR     64  59  82 CALM      30.11S
WINONA         CLEAR     68  63  83 CALM      30.10R
AUSTIN         CLEAR     61  59  94 CALM      30.11S
PRESTON        CLEAR     65  64  95 S5        30.13R
$$
ABBREVIATIONS USED IN REMARKS
   TC - TEMPERATURES IN CELSIUS
  WCI - WIND CHILL INDEX
   HX - HEAT INDEX
  VSB - VISIBILITY
$$



USA.gov is the U.S. government's official web portal to all federal, state and local government web resources and services.